START_TIME,STEP,MOV.,P11,t_acc.,P23,t_acc.,P27,t_acc.,A4,t_acc.
1989-08-24T12:00:23.990 ,1,0,0.,4.8,0.,4.8,0.,4.8,0.,4.8
1989-08-24T12:00:28.790 ,1,0,0.,4.8,0.,4.8,0.,4.8,0.,4.8
1989-08-24T12:00:33.590 ,1,0,0.,4.8,0.,4.8,0.,4.8,0.,4.8
1989-08-24T12:00:38.390 ,1,0,0.,4.8,0.,4.8,0.,4.8,0.,4.8
1989-08-24T12:00:43.190 ,1,0,0.,4.8,0.,4.8,0.,4.8,0.,4.8
1989-08-24T12:00:47.980 ,0,0,0.,4.8,0.,4.8,0.,4.8,0.,4.8
1989-08-24T12:00:52.780 ,0,0,0.,4.8,0.,4.8,0.,4.8,0.,4.8
1989-08-24T12:00:57.590 ,0,0,0.,4.8,0.,4.8,0.,4.8,0.,4.8
1989-08-24T12:01:02.390 ,0,0,0.,4.8,0.,4.8,0.,4.8,0.,4.8
1989-08-24T12:01:07.190 ,0,0,0.,4.8,0.,4.8,0.,4.8,0.,4.8
1989-08-24T12:01:11.990 ,0,0,0.,4.8,0.,4.8,0.,4.8,0.,4.8
1989-08-24T12:01:16.790 ,0,0,0.,4.8,0.,4.8,0.,4.8,0.,4.8
1989-08-24T12:01:21.590 ,0,0,0.,4.8,0.,4.8,0.,4.8,0.,4.8
1989-08-24T12:01:26.390 ,0,0,0.,4.8,0.,4.8,0.,4.8,0.,4.8
1989-08-24T12:01:31.190 ,0,0,0.,4.8,0.,4.8,0.,4.8,0.,4.8
1989-08-24T12:01:35.990 ,0,0,0.,4.8,0.,4.8,0.,4.8,0.,4.8
1989-08-24T12:01:40.790 ,0,0,0.,4.8,0.,4.8,0.,4.8,0.,4.8
1989-08-24T12:01:45.590 ,0,0,0.,4.8,0.,4.8,0.,4.8,0.,4.8
1989-08-24T12:01:50.390 ,0,0,0.,4.8,0.,4.8,0.,4.8,0.,4.8
1989-08-24T12:01:55.190 ,0,0,0.,4.8,0.,4.8,0.,4.8,0.,4.8
1989-08-24T12:01:59.990 ,0,0,0.,4.8,0.,4.8,0.,4.8,0.,4.8
1989-08-24T12:02:04.790 ,0,0,0.,4.8,0.,4.8,0.,4.8,0.,4.8
1989-08-24T12:02:09.590 ,0,0,0.,4.8,0.,4.8,0.,4.8,0.,4.8
1989-08-24T12:02:14.390 ,0,0,0.,4.8,0.,4.8,0.,4.8,0.,4.8
1989-08-24T12:02:19.190 ,0,0,0.,4.8,0.,4.8,0.,4.8,0.,4.8
1989-08-24T12:02:23.990 ,1,0,0.,4.8,0.,4.8,0.,4.8,0.,4.8
1989-08-24T12:02:28.790 ,1,0,0.,4.8,0.,4.8,0.,4.8,0.,4.8
1989-08-24T12:02:33.590 ,1,0,0.,4.8,0.,4.8,0.,4.8,0.,4.8
1989-08-24T12:02:38.380 ,1,0,0.,4.8,0.,4.8,0.,4.8,0.,4.8
1989-08-24T12:02:43.190 ,1,0,0.,4.8,0.,4.8,0.,4.8,0.,4.8
1989-08-24T12:02:47.990 ,1,0,0.,4.8,0.,4.8,0.,4.8,0.,4.8
1989-08-24T12:02:52.790 ,1,0,0.,4.8,0.,4.8,0.,4.8,0.,4.8
1989-08-24T12:02:57.590 ,1,0,0.,4.8,0.,4.8,0.,4.8,0.,4.8
1989-08-24T12:03:02.390 ,1,0,0.,4.8,0.,4.8,0.,4.8,0.,4.8
1989-08-24T12:03:07.190 ,1,0,0.,4.8,0.,4.8,0.,4.8,0.,4.8
1989-08-24T12:03:11.990 ,2,0,0.,4.8,0.,4.8,0.,4.8,0.,4.8
1989-08-24T12:03:16.790 ,2,0,0.,4.8,0.,4.8,0.,4.8,0.,4.8
1989-08-24T12:03:21.590 ,2,0,0.,4.8,0.,4.8,0.,4.8,0.,4.8
1989-08-24T12:03:26.390 ,2,0,0.,4.8,0.,4.8,0.,4.8,0.,4.8
1989-08-24T12:03:31.180 ,2,0,0.,4.8,0.,4.8,0.,4.8,0.,4.8
1989-08-24T12:03:35.980 ,2,0,0.,4.8,0.,4.8,0.,4.8,0.,4.8
1989-08-24T12:03:40.780 ,2,0,0.,4.8,0.,4.8,0.,4.8,0.,4.8
1989-08-24T12:03:45.590 ,2,0,0.,4.8,0.,4.8,0.,4.8,0.,4.8
1989-08-24T12:03:50.390 ,2,0,0.,4.8,0.,4.8,0.,4.8,0.,4.8
1989-08-24T12:03:55.190 ,2,0,0.,4.8,0.,4.8,0.,4.8,0.,4.8
1989-08-24T12:03:59.990 ,3,0,0.,4.8,0.,4.8,0.,4.8,0.,4.8
1989-08-24T12:04:04.780 ,3,0,0.,4.8,0.,4.8,0.,4.8,0.,4.8
1989-08-24T12:04:09.590 ,3,0,0.,4.8,0.,4.8,0.,4.8,0.,4.8
1989-08-24T12:04:14.390 ,3,0,0.,4.8,0.,4.8,0.,4.8,0.,4.8
1989-08-24T12:04:19.180 ,3,0,0.,4.8,0.,4.8,0.,4.8,0.,4.8
1989-08-24T12:04:23.990 ,3,0,0.,4.8,0.,4.8,0.,4.8,0.,4.8
1989-08-24T12:04:28.790 ,3,0,0.,4.8,0.,4.8,0.,4.8,0.,4.8
1989-08-24T12:04:33.590 ,3,0,0.,4.8,0.,4.8,0.,4.8,0.,4.8
1989-08-24T12:04:38.390 ,3,0,0.,4.8,0.,4.8,0.,4.8,0.,4.8
1989-08-24T12:04:43.190 ,3,0,0.,4.8,0.,4.8,0.,4.8,0.,4.8
1989-08-24T12:04:47.990 ,4,0,0.,4.8,0.,4.8,0.,4.8,0.,4.8
1989-08-24T12:04:52.790 ,4,0,0.,4.8,0.,4.8,0.,4.8,0.,4.8
1989-08-24T12:04:57.590 ,4,0,0.,4.8,0.,4.8,0.,4.8,0.,4.8
1989-08-24T12:05:02.390 ,4,0,0.,4.8,0.,4.8,0.,4.8,0.,4.8
1989-08-24T12:05:07.190 ,4,0,0.,4.8,0.,4.8,0.,4.8,0.,4.8
1989-08-24T12:05:11.990 ,4,0,0.,4.8,0.,4.8,0.,4.8,0.,4.8
1989-08-24T12:05:16.790 ,4,0,0.,4.8,0.,4.8,0.,4.8,0.,4.8
1989-08-24T12:05:21.590 ,4,0,0.,4.8,0.,4.8,0.,4.8,0.,4.8
1989-08-24T12:05:26.390 ,4,0,0.,4.8,0.,4.8,0.,4.8,0.,4.8
1989-08-24T12:05:31.190 ,4,0,0.,4.8,0.,4.8,0.,4.8,0.,4.8
1989-08-24T12:05:35.990 ,5,0,0.,4.8,0.,4.8,0.,4.8,0.,4.8
1989-08-24T12:05:40.790 ,5,0,0.,4.8,0.,4.8,0.,4.8,0.,4.8
1989-08-24T12:05:45.590 ,5,0,0.,4.8,0.,4.8,0.,4.8,0.,4.8
1989-08-24T12:05:50.390 ,5,0,0.,4.8,0.,4.8,0.,4.8,0.,4.8
1989-08-24T12:05:55.190 ,5,0,0.,4.8,0.,4.8,0.,4.8,0.,4.8
1989-08-24T12:05:59.990 ,5,0,0.,4.8,0.,4.8,0.,4.8,0.,4.8
1989-08-24T12:06:04.790 ,5,0,0.,4.8,0.,4.8,0.,4.8,0.,4.8
1989-08-24T12:06:09.590 ,5,0,0.,4.8,0.,4.8,0.,4.8,0.,4.8
1989-08-24T12:06:14.390 ,5,0,0.,4.8,0.,4.8,0.,4.8,0.,4.8
1989-08-24T12:06:19.190 ,5,0,0.,4.8,0.,4.8,0.,4.8,0.,4.8
1989-08-24T12:06:23.990 ,6,0,0.,4.8,0.,4.8,0.,4.8,0.,4.8
1989-08-24T12:06:28.790 ,6,0,0.,4.8,0.,4.8,0.,4.8,0.,4.8
1989-08-24T12:06:33.590 ,6,0,0.,4.8,0.,4.8,0.,4.8,0.,4.8
1989-08-24T12:06:38.390 ,6,0,0.,4.8,0.,4.8,0.,4.8,0.,4.8
1989-08-24T12:06:43.190 ,6,0,0.,4.8,0.,4.8,0.,4.8,0.,4.8
1989-08-24T12:06:47.990 ,6,0,0.,4.8,0.,4.8,0.,4.8,0.,4.8
1989-08-24T12:06:52.790 ,6,0,0.,4.8,0.,4.8,0.,4.8,0.,4.8
1989-08-24T12:06:57.590 ,6,0,0.,4.8,0.,4.8,0.,4.8,0.,4.8
1989-08-24T12:07:02.390 ,6,0,0.,4.8,0.,4.8,0.,4.8,0.,4.8
1989-08-24T12:07:07.190 ,6,0,0.,4.8,0.,4.8,0.,4.8,0.,4.8
1989-08-24T12:07:11.990 ,7,0,0.,4.8,0.,4.8,0.,4.8,0.,4.8
1989-08-24T12:07:16.790 ,7,0,0.,4.8,0.,4.8,0.,4.8,1.,4.8
1989-08-24T12:07:21.590 ,7,0,0.,4.8,0.,4.8,0.,4.8,0.,4.8
1989-08-24T12:07:26.390 ,7,0,0.,4.8,0.,4.8,0.,4.8,0.,4.8
1989-08-24T12:07:31.190 ,7,0,0.,4.8,0.,4.8,0.,4.8,0.,4.8
1989-08-24T12:07:35.990 ,7,0,0.,4.8,0.,4.8,0.,4.8,0.,4.8
1989-08-24T12:07:40.790 ,7,0,0.,4.8,0.,4.8,0.,4.8,0.,4.8
1989-08-24T12:07:45.590 ,7,0,0.,4.8,0.,4.8,0.,4.8,0.,4.8
1989-08-24T12:07:50.390 ,7,0,0.,4.8,0.,4.8,0.,4.8,0.,4.8
1989-08-24T12:07:55.190 ,7,0,0.,4.8,0.,4.8,0.,4.8,0.,4.8
1989-08-24T12:07:59.990 ,7,0,0.,4.8,0.,4.8,0.,4.8,0.,4.8
1989-08-24T12:08:04.790 ,7,0,0.,4.8,0.,4.8,0.,4.8,0.,4.8
1989-08-24T12:08:09.590 ,7,0,0.,4.8,0.,4.8,0.,4.8,0.,4.8
1989-08-24T12:08:14.390 ,7,0,0.,4.8,0.,4.8,0.,4.8,0.,4.8
1989-08-24T12:08:19.190 ,7,0,0.,4.8,0.,4.8,0.,4.8,0.,4.8
1989-08-24T12:08:23.990 ,7,0,0.,4.8,0.,4.8,0.,4.8,0.,4.8
1989-08-24T12:08:28.790 ,7,0,0.,4.8,0.,4.8,0.,4.8,0.,4.8
1989-08-24T12:08:33.590 ,7,0,0.,4.8,0.,4.8,0.,4.8,0.,4.8
1989-08-24T12:08:38.390 ,7,0,0.,4.8,0.,4.8,0.,4.8,0.,4.8
1989-08-24T12:08:43.180 ,7,0,0.,4.8,0.,4.8,0.,4.8,0.,4.8
1989-08-24T12:08:47.980 ,6,0,0.,4.8,0.,4.8,0.,4.8,0.,4.8
1989-08-24T12:08:52.790 ,6,0,0.,4.8,0.,4.8,0.,4.8,0.,4.8
1989-08-24T12:08:57.590 ,6,0,0.,4.8,0.,4.8,0.,4.8,0.,4.8
1989-08-24T12:09:02.390 ,6,0,0.,4.8,0.,4.8,0.,4.8,0.,4.8
1989-08-24T12:09:07.180 ,6,0,0.,4.8,0.,4.8,0.,4.8,0.,4.8
1989-08-24T12:09:11.980 ,6,0,0.,4.8,0.,4.8,0.,4.8,0.,4.8
1989-08-24T12:09:16.790 ,6,0,0.,4.8,0.,4.8,0.,4.8,0.,4.8
1989-08-24T12:09:21.590 ,6,0,0.,4.8,0.,4.8,0.,4.8,0.,4.8
1989-08-24T12:09:26.390 ,6,0,0.,4.8,0.,4.8,0.,4.8,0.,4.8
1989-08-24T12:09:31.180 ,6,0,0.,4.8,0.,4.8,0.,4.8,0.,4.8
1989-08-24T12:09:35.980 ,5,0,0.,4.8,0.,4.8,0.,4.8,0.,4.8
1989-08-24T12:09:40.790 ,5,0,0.,4.8,0.,4.8,0.,4.8,0.,4.8
1989-08-24T12:09:45.590 ,5,0,0.,4.8,0.,4.8,0.,4.8,0.,4.8
1989-08-24T12:09:50.390 ,5,0,0.,4.8,0.,4.8,0.,4.8,0.,4.8
1989-08-24T12:09:55.180 ,5,0,0.,4.8,0.,4.8,0.,4.8,0.,4.8
1989-08-24T12:09:59.980 ,5,0,0.,4.8,0.,4.8,0.,4.8,0.,4.8
1989-08-24T12:10:04.790 ,5,0,0.,4.8,0.,4.8,0.,4.8,0.,4.8
1989-08-24T12:10:09.590 ,5,0,0.,4.8,0.,4.8,0.,4.8,0.,4.8
1989-08-24T12:10:14.390 ,5,0,0.,4.8,0.,4.8,0.,4.8,0.,4.8
1989-08-24T12:10:19.180 ,5,0,0.,4.8,0.,4.8,0.,4.8,0.,4.8
1989-08-24T12:10:23.980 ,4,0,0.,4.8,0.,4.8,0.,4.8,0.,4.8
1989-08-24T12:10:28.790 ,4,0,0.,4.8,0.,4.8,0.,4.8,0.,4.8
1989-08-24T12:10:33.590 ,4,0,0.,4.8,0.,4.8,0.,4.8,0.,4.8
1989-08-24T12:10:38.390 ,4,0,0.,4.8,0.,4.8,0.,4.8,0.,4.8
1989-08-24T12:10:43.180 ,4,0,0.,4.8,0.,4.8,0.,4.8,0.,4.8
1989-08-24T12:10:47.980 ,4,0,0.,4.8,0.,4.8,0.,4.8,0.,4.8
1989-08-24T12:10:52.790 ,4,0,0.,4.8,0.,4.8,0.,4.8,0.,4.8
1989-08-24T12:10:57.590 ,4,0,0.,4.8,0.,4.8,0.,4.8,0.,4.8
1989-08-24T12:11:02.390 ,4,0,0.,4.8,0.,4.8,0.,4.8,1.,4.8
1989-08-24T12:11:07.180 ,4,0,0.,4.8,0.,4.8,0.,4.8,0.,4.8
1989-08-24T12:11:11.980 ,3,0,0.,4.8,0.,4.8,0.,4.8,0.,4.8
1989-08-24T12:11:16.790 ,3,0,0.,4.8,0.,4.8,0.,4.8,0.,4.8
1989-08-24T12:11:21.590 ,3,0,0.,4.8,0.,4.8,0.,4.8,0.,4.8
1989-08-24T12:11:26.390 ,3,0,0.,4.8,0.,4.8,0.,4.8,0.,4.8
1989-08-24T12:11:31.180 ,3,0,0.,4.8,0.,4.8,0.,4.8,0.,4.8
1989-08-24T12:11:35.980 ,0,0,0.,4.8,0.,4.8,0.,4.8,0.,4.8
1989-08-24T12:11:40.790 ,0,0,0.,4.8,0.,4.8,0.,4.8,0.,4.8
1989-08-24T12:11:45.590 ,0,0,0.,4.8,0.,4.8,0.,4.8,0.,4.8
1989-08-24T12:11:50.390 ,0,0,0.,4.8,0.,4.8,0.,4.8,0.,4.8
1989-08-24T12:11:55.180 ,0,0,,0,,0,,0,,0
1989-08-24T12:11:59.980 ,2,0,0.,4.8,0.,4.8,0.,4.8,0.,4.8
1989-08-24T12:12:04.780 ,2,0,0.,4.8,0.,4.8,0.,4.8,0.,4.8
1989-08-24T12:12:09.580 ,2,0,0.,4.8,0.,4.8,0.,4.8,0.,4.8
1989-08-24T12:12:14.380 ,2,0,0.,4.8,0.,4.8,0.,4.8,0.,4.8
1989-08-24T12:12:19.180 ,2,0,0.,4.8,0.,4.8,0.,4.8,0.,4.8
1989-08-24T12:12:23.980 ,2,0,0.,4.8,0.,4.8,0.,4.8,0.,4.8
1989-08-24T12:12:28.780 ,2,0,0.,4.8,0.,4.8,0.,4.8,0.,4.8
1989-08-24T12:12:33.580 ,2,0,0.,4.8,0.,4.8,0.,4.8,0.,4.8
1989-08-24T12:12:38.380 ,2,0,0.,4.8,0.,4.8,0.,4.8,0.,4.8
1989-08-24T12:12:43.180 ,2,0,0.,4.8,0.,4.8,0.,4.8,0.,4.8
1989-08-24T12:12:47.980 ,1,0,0.,4.8,0.,4.8,0.,4.8,0.,4.8
1989-08-24T12:12:52.780 ,1,0,0.,4.8,0.,4.8,0.,4.8,0.,4.8
1989-08-24T12:12:57.580 ,1,0,0.,4.8,0.,4.8,0.,4.8,0.,4.8
1989-08-24T12:13:02.380 ,1,0,0.,4.8,0.,4.8,0.,4.8,0.,4.8
1989-08-24T12:13:07.180 ,1,0,0.,4.8,0.,4.8,0.,4.8,0.,4.8
1989-08-24T12:13:11.980 ,1,0,0.,4.8,0.,4.8,0.,4.8,0.,4.8
1989-08-24T12:13:16.780 ,1,0,0.,4.8,0.,4.8,0.,4.8,0.,4.8
1989-08-24T12:13:21.580 ,1,0,0.,4.8,0.,4.8,0.,4.8,0.,4.8
1989-08-24T12:13:26.380 ,1,0,0.,4.8,0.,4.8,0.,4.8,0.,4.8
1989-08-24T12:13:31.180 ,1,0,0.,4.8,0.,4.8,0.,4.8,0.,4.8
1989-08-24T12:13:35.980 ,0,0,0.,4.8,0.,4.8,0.,4.8,0.,4.8
1989-08-24T12:13:40.780 ,0,0,0.,4.8,0.,4.8,0.,4.8,0.,4.8
1989-08-24T12:13:45.580 ,0,0,0.,4.8,0.,4.8,0.,4.8,0.,4.8
1989-08-24T12:13:50.380 ,0,0,0.,4.8,0.,4.8,0.,4.8,0.,4.8
1989-08-24T12:13:55.180 ,0,0,0.,4.8,0.,4.8,0.,4.8,0.,4.8
1989-08-24T12:13:59.980 ,0,0,0.,4.8,0.,4.8,0.,4.8,0.,4.8
1989-08-24T12:14:04.780 ,0,0,0.,4.8,0.,4.8,0.,4.8,0.,4.8
1989-08-24T12:14:09.580 ,0,0,0.,4.8,0.,4.8,0.,4.8,0.,4.8
1989-08-24T12:14:14.380 ,0,0,0.,4.8,0.,4.8,0.,4.8,0.,4.8
1989-08-24T12:14:19.180 ,0,0,0.,4.8,0.,4.8,0.,4.8,0.,4.8
1989-08-24T12:14:23.980 ,0,0,0.,4.8,0.,4.8,0.,4.8,0.,4.8
1989-08-24T12:14:28.780 ,0,0,0.,4.8,0.,4.8,0.,4.8,0.,4.8
1989-08-24T12:14:33.580 ,0,0,0.,4.8,0.,4.8,0.,4.8,0.,4.8
1989-08-24T12:14:38.380 ,0,0,0.,4.8,0.,4.8,0.,4.8,0.,4.8
1989-08-24T12:14:43.180 ,0,0,0.,4.8,0.,4.8,0.,4.8,0.,4.8
1989-08-24T12:14:47.980 ,0,0,0.,4.8,0.,4.8,0.,4.8,0.,4.8
1989-08-24T12:14:52.780 ,0,0,0.,4.8,0.,4.8,0.,4.8,0.,4.8
1989-08-24T12:14:57.580 ,0,0,0.,4.8,0.,4.8,0.,4.8,0.,4.8
1989-08-24T12:15:02.380 ,0,0,0.,4.8,0.,4.8,0.,4.8,0.,4.8
1989-08-24T12:15:07.180 ,0,0,0.,4.8,0.,4.8,0.,4.8,0.,4.8
1989-08-24T12:15:11.980 ,1,0,0.,4.8,0.,4.8,0.,4.8,0.,4.8
1989-08-24T12:15:16.780 ,1,0,0.,4.8,0.,4.8,0.,4.8,0.,4.8
1989-08-24T12:15:21.580 ,1,0,0.,4.8,0.,4.8,0.,4.8,0.,4.8
1989-08-24T12:15:26.380 ,1,0,0.,4.8,0.,4.8,0.,4.8,0.,4.8
1989-08-24T12:15:31.180 ,1,0,0.,4.8,0.,4.8,0.,4.8,0.,4.8
1989-08-24T12:15:35.980 ,1,0,0.,4.8,0.,4.8,0.,4.8,0.,4.8
1989-08-24T12:15:40.780 ,1,0,0.,4.8,0.,4.8,0.,4.8,0.,4.8
1989-08-24T12:15:45.580 ,1,0,0.,4.8,0.,4.8,0.,4.8,0.,4.8
1989-08-24T12:15:50.380 ,1,0,0.,4.8,0.,4.8,0.,4.8,0.,4.8
1989-08-24T12:15:55.180 ,1,0,0.,4.8,0.,4.8,0.,4.8,0.,4.8
1989-08-24T12:15:59.980 ,2,0,0.,4.8,0.,4.8,0.,4.8,0.,4.8
1989-08-24T12:16:04.780 ,2,0,0.,4.8,0.,4.8,0.,4.8,0.,4.8
1989-08-24T12:16:09.580 ,2,0,0.,4.8,0.,4.8,0.,4.8,0.,4.8
1989-08-24T12:16:14.380 ,2,0,0.,4.8,0.,4.8,0.,4.8,1.,4.8
1989-08-24T12:16:19.180 ,2,0,0.,4.8,0.,4.8,0.,4.8,0.,4.8
1989-08-24T12:16:23.980 ,2,0,0.,4.8,0.,4.8,0.,4.8,0.,4.8
1989-08-24T12:16:28.780 ,2,0,0.,4.8,0.,4.8,0.,4.8,0.,4.8
1989-08-24T12:16:33.580 ,2,0,0.,4.8,0.,4.8,0.,4.8,0.,4.8
1989-08-24T12:16:38.380 ,2,0,0.,4.8,0.,4.8,0.,4.8,0.,4.8
1989-08-24T12:16:43.180 ,2,0,0.,4.8,0.,4.8,0.,4.8,0.,4.8
1989-08-24T12:16:47.980 ,3,0,0.,4.8,0.,4.8,0.,4.8,0.,4.8
1989-08-24T12:16:52.780 ,3,0,0.,4.8,0.,4.8,0.,4.8,0.,4.8
1989-08-24T12:16:57.580 ,3,0,0.,4.8,0.,4.8,0.,4.8,0.,4.8
1989-08-24T12:17:02.380 ,3,0,0.,4.8,0.,4.8,0.,4.8,0.,4.8
1989-08-24T12:17:07.180 ,3,0,0.,4.8,0.,4.8,0.,4.8,0.,4.8
1989-08-24T12:17:11.980 ,3,0,0.,4.8,0.,4.8,0.,4.8,0.,4.8
1989-08-24T12:17:16.780 ,3,0,0.,4.8,0.,4.8,0.,4.8,0.,4.8
1989-08-24T12:17:21.580 ,3,0,0.,4.8,0.,4.8,0.,4.8,0.,4.8
1989-08-24T12:17:26.380 ,3,0,0.,4.8,0.,4.8,0.,4.8,0.,4.8
1989-08-24T12:17:31.180 ,3,0,0.,4.8,0.,4.8,0.,4.8,0.,4.8
1989-08-24T12:17:35.980 ,4,0,0.,4.8,0.,4.8,0.,4.8,0.,4.8
1989-08-24T12:17:40.780 ,4,0,0.,4.8,0.,4.8,0.,4.8,0.,4.8
1989-08-24T12:17:45.580 ,4,0,0.,4.8,0.,4.8,0.,4.8,0.,4.8
1989-08-24T12:17:50.380 ,4,0,0.,4.8,0.,4.8,0.,4.8,0.,4.8
1989-08-24T12:17:55.180 ,4,0,0.,4.8,0.,4.8,0.,4.8,0.,4.8
1989-08-24T12:17:59.980 ,4,0,0.,4.8,0.,4.8,0.,4.8,0.,4.8
1989-08-24T12:18:04.780 ,4,0,0.,4.8,0.,4.8,0.,4.8,0.,4.8
1989-08-24T12:18:09.580 ,4,0,0.,4.8,0.,4.8,0.,4.8,0.,4.8
1989-08-24T12:18:14.380 ,4,0,0.,4.8,0.,4.8,0.,4.8,0.,4.8
1989-08-24T12:18:19.180 ,4,0,0.,4.8,0.,4.8,0.,4.8,0.,4.8
1989-08-24T12:18:23.980 ,5,0,0.,4.8,0.,4.8,0.,4.8,0.,4.8
1989-08-24T12:18:28.780 ,5,0,0.,4.8,0.,4.8,0.,4.8,0.,4.8
1989-08-24T12:18:33.580 ,5,0,0.,4.8,0.,4.8,0.,4.8,0.,4.8
1989-08-24T12:18:38.380 ,5,0,0.,4.8,0.,4.8,0.,4.8,0.,4.8
1989-08-24T12:18:43.180 ,5,0,0.,4.8,0.,4.8,0.,4.8,0.,4.8
1989-08-24T12:18:47.980 ,5,0,0.,4.8,0.,4.8,0.,4.8,0.,4.8
1989-08-24T12:18:52.780 ,5,0,0.,4.8,0.,4.8,0.,4.8,0.,4.8
1989-08-24T12:18:57.580 ,5,0,0.,4.8,0.,4.8,0.,4.8,0.,4.8
1989-08-24T12:19:02.380 ,5,0,0.,4.8,0.,4.8,0.,4.8,0.,4.8
1989-08-24T12:19:07.180 ,5,0,0.,4.8,0.,4.8,0.,4.8,0.,4.8
1989-08-24T12:19:11.980 ,6,0,0.,4.8,0.,4.8,0.,4.8,0.,4.8
1989-08-24T12:19:16.780 ,6,0,0.,4.8,0.,4.8,0.,4.8,0.,4.8
1989-08-24T12:19:21.580 ,6,0,0.,4.8,0.,4.8,0.,4.8,0.,4.8
1989-08-24T12:19:26.380 ,6,0,0.,4.8,0.,4.8,0.,4.8,0.,4.8
1989-08-24T12:19:31.180 ,6,0,0.,4.8,0.,4.8,0.,4.8,0.,4.8
1989-08-24T12:19:35.980 ,6,0,0.,4.8,0.,4.8,0.,4.8,1.,4.8
1989-08-24T12:19:40.780 ,6,0,0.,4.8,0.,4.8,0.,4.8,0.,4.8
1989-08-24T12:19:45.580 ,6,0,0.,4.8,0.,4.8,0.,4.8,0.,4.8
1989-08-24T12:19:50.380 ,6,0,0.,4.8,0.,4.8,0.,4.8,0.,4.8
1989-08-24T12:19:55.180 ,6,0,0.,4.8,0.,4.8,0.,4.8,0.,4.8
1989-08-24T12:19:59.980 ,7,0,0.,4.8,0.,4.8,0.,4.8,0.,4.8
1989-08-24T12:20:04.780 ,7,0,0.,4.8,0.,4.8,0.,4.8,0.,4.8
1989-08-24T12:20:09.580 ,7,0,0.,4.8,0.,4.8,0.,4.8,0.,4.8
1989-08-24T12:20:14.380 ,7,0,0.,4.8,0.,4.8,0.,4.8,0.,4.8
1989-08-24T12:20:19.180 ,7,0,0.,4.8,0.,4.8,0.,4.8,0.,4.8
1989-08-24T12:20:23.980 ,7,0,0.,4.8,0.,4.8,0.,4.8,0.,4.8
1989-08-24T12:20:28.780 ,7,0,0.,4.8,0.,4.8,0.,4.8,0.,4.8
1989-08-24T12:20:33.580 ,7,0,0.,4.8,0.,4.8,0.,4.8,0.,4.8
1989-08-24T12:20:38.380 ,7,0,0.,4.8,0.,4.8,0.,4.8,0.,4.8
1989-08-24T12:20:43.180 ,7,0,0.,4.8,0.,4.8,0.,4.8,0.,4.8
1989-08-24T12:20:47.980 ,7,0,0.,4.8,0.,4.8,0.,4.8,0.,4.8
1989-08-24T12:20:52.780 ,7,0,0.,4.8,0.,4.8,0.,4.8,0.,4.8
1989-08-24T12:20:57.580 ,7,0,0.,4.8,0.,4.8,0.,4.8,0.,4.8
1989-08-24T12:21:02.380 ,7,0,0.,4.8,0.,4.8,0.,4.8,0.,4.8
1989-08-24T12:21:07.180 ,7,0,0.,4.8,0.,4.8,0.,4.8,0.,4.8
1989-08-24T12:21:11.980 ,7,0,0.,4.8,0.,4.8,0.,4.8,0.,4.8
1989-08-24T12:21:16.780 ,7,0,0.,4.8,0.,4.8,0.,4.8,0.,4.8
1989-08-24T12:21:21.580 ,7,0,0.,4.8,0.,4.8,0.,4.8,0.,4.8
1989-08-24T12:21:26.380 ,7,0,0.,4.8,0.,4.8,0.,4.8,0.,4.8
1989-08-24T12:21:31.180 ,7,0,0.,4.8,0.,4.8,0.,4.8,0.,4.8
1989-08-24T12:21:35.980 ,6,0,0.,4.8,0.,4.8,0.,4.8,0.,4.8
1989-08-24T12:21:40.780 ,6,0,0.,4.8,0.,4.8,0.,4.8,0.,4.8
1989-08-24T12:21:45.580 ,6,0,0.,4.8,0.,4.8,0.,4.8,0.,4.8
1989-08-24T12:21:50.380 ,6,0,0.,4.8,0.,4.8,0.,4.8,0.,4.8
1989-08-24T12:21:55.180 ,6,0,0.,4.8,0.,4.8,0.,4.8,0.,4.8
1989-08-24T12:21:59.980 ,6,0,0.,4.8,0.,4.8,0.,4.8,0.,4.8
1989-08-24T12:22:04.780 ,6,0,0.,4.8,0.,4.8,0.,4.8,0.,4.8
1989-08-24T12:22:09.580 ,6,0,0.,4.8,0.,4.8,0.,4.8,0.,4.8
1989-08-24T12:22:14.380 ,6,0,0.,4.8,0.,4.8,0.,4.8,0.,4.8
1989-08-24T12:22:19.180 ,6,0,0.,4.8,0.,4.8,0.,4.8,0.,4.8
1989-08-24T12:22:23.980 ,5,0,0.,4.8,0.,4.8,0.,4.8,0.,4.8
1989-08-24T12:22:28.780 ,5,0,0.,4.8,0.,4.8,0.,4.8,0.,4.8
1989-08-24T12:22:33.580 ,5,0,0.,4.8,0.,4.8,0.,4.8,0.,4.8
1989-08-24T12:22:38.380 ,5,0,0.,4.8,0.,4.8,0.,4.8,0.,4.8
1989-08-24T12:22:43.180 ,5,0,0.,4.8,0.,4.8,0.,4.8,0.,4.8
1989-08-24T12:22:47.980 ,5,0,0.,4.8,0.,4.8,0.,4.8,0.,4.8
1989-08-24T12:22:52.780 ,5,0,0.,4.8,0.,4.8,0.,4.8,0.,4.8
1989-08-24T12:22:57.580 ,5,0,0.,4.8,0.,4.8,0.,4.8,0.,4.8
1989-08-24T12:23:02.380 ,5,0,0.,4.8,0.,4.8,0.,4.8,0.,4.8
1989-08-24T12:23:07.180 ,5,0,0.,4.8,0.,4.8,0.,4.8,0.,4.8
1989-08-24T12:23:11.980 ,4,0,0.,4.8,0.,4.8,0.,4.8,0.,4.8
1989-08-24T12:23:16.780 ,4,0,0.,4.8,0.,4.8,0.,4.8,0.,4.8
1989-08-24T12:23:21.580 ,4,0,0.,4.8,0.,4.8,0.,4.8,0.,4.8
1989-08-24T12:23:26.380 ,4,0,0.,4.8,0.,4.8,0.,4.8,0.,4.8
1989-08-24T12:23:31.180 ,4,0,0.,4.8,0.,4.8,0.,4.8,0.,4.8
1989-08-24T12:23:35.980 ,4,0,0.,4.8,0.,4.8,0.,4.8,0.,4.8
1989-08-24T12:23:40.780 ,4,0,0.,4.8,0.,4.8,0.,4.8,0.,4.8
1989-08-24T12:23:45.580 ,4,0,0.,4.8,0.,4.8,0.,4.8,0.,4.8
1989-08-24T12:23:50.380 ,4,0,0.,4.8,0.,4.8,0.,4.8,0.,4.8
1989-08-24T12:23:55.180 ,4,0,0.,4.8,0.,4.8,0.,4.8,0.,4.8
1989-08-24T12:23:59.980 ,3,0,0.,4.8,0.,4.8,0.,4.8,0.,4.8
1989-08-24T12:24:04.780 ,3,0,0.,4.8,0.,4.8,0.,4.8,0.,4.8
1989-08-24T12:24:09.580 ,3,0,0.,4.8,0.,4.8,0.,4.8,0.,4.8
1989-08-24T12:24:14.380 ,3,0,0.,4.8,0.,4.8,0.,4.8,0.,4.8
1989-08-24T12:24:19.180 ,3,0,0.,4.8,0.,4.8,0.,4.8,0.,4.8
1989-08-24T12:24:23.980 ,3,0,0.,4.8,0.,4.8,0.,4.8,0.,4.8
1989-08-24T12:24:28.780 ,3,0,0.,4.8,0.,4.8,0.,4.8,0.,4.8
1989-08-24T12:24:33.580 ,3,0,0.,4.8,0.,4.8,0.,4.8,0.,4.8
1989-08-24T12:24:38.380 ,3,0,0.,4.8,0.,4.8,0.,4.8,0.,4.8
1989-08-24T12:24:43.180 ,3,0,0.,4.8,0.,4.8,0.,4.8,0.,4.8
1989-08-24T12:24:47.980 ,2,0,0.,4.8,0.,4.8,0.,4.8,0.,4.8
1989-08-24T12:24:52.780 ,2,0,0.,4.8,0.,4.8,0.,4.8,0.,4.8
1989-08-24T12:24:57.580 ,2,0,0.,4.8,0.,4.8,0.,4.8,0.,4.8
1989-08-24T12:25:02.380 ,2,0,0.,4.8,0.,4.8,0.,4.8,0.,4.8
1989-08-24T12:25:07.180 ,2,0,0.,4.8,0.,4.8,0.,4.8,0.,4.8
1989-08-24T12:25:11.980 ,2,0,0.,4.8,0.,4.8,0.,4.8,0.,4.8
1989-08-24T12:25:16.780 ,2,0,0.,4.8,0.,4.8,0.,4.8,0.,4.8
1989-08-24T12:25:21.580 ,2,0,0.,4.8,0.,4.8,0.,4.8,0.,4.8
1989-08-24T12:25:26.380 ,2,0,0.,4.8,0.,4.8,0.,4.8,0.,4.8
1989-08-24T12:25:31.180 ,2,0,0.,4.8,0.,4.8,0.,4.8,0.,4.8
1989-08-24T12:25:35.980 ,1,0,0.,4.8,0.,4.8,0.,4.8,0.,4.8
1989-08-24T12:25:40.780 ,1,0,0.,4.8,0.,4.8,0.,4.8,0.,4.8
1989-08-24T12:25:45.580 ,1,0,0.,4.8,0.,4.8,0.,4.8,0.,4.8
1989-08-24T12:25:50.380 ,1,0,0.,4.8,0.,4.8,0.,4.8,0.,4.8
1989-08-24T12:25:55.180 ,1,0,0.,4.8,0.,4.8,0.,4.8,0.,4.8
1989-08-24T12:25:59.980 ,1,0,0.,4.8,0.,4.8,0.,4.8,0.,4.8
1989-08-24T12:26:04.780 ,1,0,0.,4.8,0.,4.8,0.,4.8,0.,4.8
1989-08-24T12:26:09.580 ,1,0,0.,4.8,0.,4.8,0.,4.8,0.,4.8
1989-08-24T12:26:14.380 ,1,0,0.,4.8,0.,4.8,0.,4.8,0.,4.8
1989-08-24T12:26:19.180 ,1,0,0.,4.8,0.,4.8,0.,4.8,0.,4.8
1989-08-24T12:26:23.980 ,0,0,0.,4.8,0.,4.8,0.,4.8,0.,4.8
1989-08-24T12:26:28.780 ,0,0,0.,4.8,0.,4.8,0.,4.8,0.,4.8
1989-08-24T12:26:33.580 ,0,0,0.,4.8,0.,4.8,0.,4.8,0.,4.8
1989-08-24T12:26:38.380 ,0,0,0.,4.8,0.,4.8,0.,4.8,0.,4.8
1989-08-24T12:26:43.180 ,0,0,0.,4.8,0.,4.8,0.,4.8,0.,4.8
1989-08-24T12:26:47.980 ,0,0,0.,4.8,0.,4.8,0.,4.8,0.,4.8
1989-08-24T12:26:52.780 ,0,0,0.,4.8,0.,4.8,0.,4.8,0.,4.8
1989-08-24T12:26:57.580 ,0,0,0.,4.8,0.,4.8,0.,4.8,0.,4.8
1989-08-24T12:27:02.380 ,0,0,0.,4.8,0.,4.8,0.,4.8,0.,4.8
1989-08-24T12:27:07.180 ,0,0,0.,4.8,0.,4.8,0.,4.8,0.,4.8
1989-08-24T12:27:11.980 ,0,0,0.,4.8,0.,4.8,0.,4.8,0.,4.8
1989-08-24T12:27:16.780 ,0,0,0.,4.8,0.,4.8,0.,4.8,0.,4.8
1989-08-24T12:27:21.580 ,0,0,0.,4.8,0.,4.8,0.,4.8,0.,4.8
1989-08-24T12:27:26.380 ,0,0,0.,4.8,0.,4.8,0.,4.8,0.,4.8
1989-08-24T12:27:31.180 ,0,0,0.,4.8,0.,4.8,0.,4.8,0.,4.8
1989-08-24T12:27:35.980 ,0,0,0.,4.8,0.,4.8,0.,4.8,0.,4.8
1989-08-24T12:27:40.780 ,0,0,0.,4.8,0.,4.8,0.,4.8,0.,4.8
1989-08-24T12:27:45.580 ,0,0,0.,4.8,0.,4.8,0.,4.8,0.,4.8
1989-08-24T12:27:50.380 ,0,0,0.,4.8,0.,4.8,0.,4.8,0.,4.8
1989-08-24T12:27:55.180 ,0,0,0.,4.8,0.,4.8,0.,4.8,0.,4.8
1989-08-24T12:27:59.980 ,1,0,0.,4.8,0.,4.8,0.,4.8,0.,4.8
1989-08-24T12:28:04.780 ,1,0,0.,4.8,0.,4.8,0.,4.8,0.,4.8
1989-08-24T12:28:09.580 ,1,0,0.,4.8,0.,4.8,0.,4.8,0.,4.8
1989-08-24T12:28:14.380 ,1,0,0.,4.8,0.,4.8,0.,4.8,0.,4.8
1989-08-24T12:28:19.180 ,1,0,0.,4.8,0.,4.8,0.,4.8,0.,4.8
1989-08-24T12:28:23.980 ,1,0,0.,4.8,0.,4.8,0.,4.8,0.,4.8
1989-08-24T12:28:28.780 ,1,0,0.,4.8,0.,4.8,0.,4.8,0.,4.8
1989-08-24T12:28:33.580 ,1,0,0.,4.8,0.,4.8,0.,4.8,0.,4.8
1989-08-24T12:28:38.380 ,1,0,0.,4.8,0.,4.8,0.,4.8,0.,4.8
1989-08-24T12:28:43.180 ,1,0,0.,4.8,0.,4.8,0.,4.8,0.,4.8
1989-08-24T12:28:47.980 ,2,0,0.,4.8,0.,4.8,0.,4.8,0.,4.8
1989-08-24T12:28:52.780 ,2,0,0.,4.8,0.,4.8,0.,4.8,0.,4.8
1989-08-24T12:28:57.580 ,2,0,0.,4.8,0.,4.8,0.,4.8,0.,4.8
1989-08-24T12:29:02.380 ,2,0,0.,4.8,0.,4.8,0.,4.8,0.,4.8
1989-08-24T12:29:07.180 ,2,0,0.,4.8,0.,4.8,0.,4.8,0.,4.8
1989-08-24T12:29:11.980 ,2,0,0.,4.8,0.,4.8,0.,4.8,0.,4.8
1989-08-24T12:29:16.780 ,2,0,0.,4.8,0.,4.8,0.,4.8,0.,4.8
1989-08-24T12:29:21.580 ,2,0,0.,4.8,0.,4.8,0.,4.8,0.,4.8
1989-08-24T12:29:26.380 ,2,0,0.,4.8,0.,4.8,0.,4.8,0.,4.8
1989-08-24T12:29:31.180 ,2,0,0.,4.8,0.,4.8,0.,4.8,0.,4.8
1989-08-24T12:29:35.980 ,3,0,0.,4.8,0.,4.8,0.,4.8,0.,4.8
1989-08-24T12:29:40.780 ,3,0,0.,4.8,0.,4.8,0.,4.8,0.,4.8
1989-08-24T12:29:45.580 ,3,0,0.,4.8,0.,4.8,0.,4.8,0.,4.8
1989-08-24T12:29:50.380 ,3,0,0.,4.8,0.,4.8,0.,4.8,0.,4.8
1989-08-24T12:29:55.180 ,3,0,0.,4.8,0.,4.8,0.,4.8,0.,4.8
1989-08-24T12:29:59.980 ,3,0,0.,4.8,0.,4.8,0.,4.8,0.,4.8
1989-08-24T12:30:04.780 ,3,0,0.,4.8,0.,4.8,0.,4.8,0.,4.8
1989-08-24T12:30:09.580 ,3,0,0.,4.8,0.,4.8,0.,4.8,0.,4.8
1989-08-24T12:30:14.380 ,3,0,0.,4.8,0.,4.8,0.,4.8,0.,4.8
1989-08-24T12:30:19.180 ,3,0,0.,4.8,0.,4.8,0.,4.8,0.,4.8
1989-08-24T12:30:23.980 ,4,0,0.,4.8,0.,4.8,0.,4.8,0.,4.8
1989-08-24T12:30:28.780 ,4,0,0.,4.8,0.,4.8,0.,4.8,0.,4.8
1989-08-24T12:30:33.580 ,4,0,0.,4.8,0.,4.8,0.,4.8,0.,4.8
1989-08-24T12:30:38.380 ,4,0,0.,4.8,0.,4.8,0.,4.8,0.,4.8
1989-08-24T12:30:43.180 ,4,0,0.,4.8,0.,4.8,0.,4.8,0.,4.8
1989-08-24T12:30:47.980 ,4,0,0.,4.8,0.,4.8,0.,4.8,0.,4.8
1989-08-24T12:30:52.780 ,4,0,0.,4.8,0.,4.8,0.,4.8,0.,4.8
1989-08-24T12:30:57.580 ,4,0,0.,4.8,0.,4.8,0.,4.8,0.,4.8
1989-08-24T12:31:02.380 ,4,0,0.,4.8,0.,4.8,0.,4.8,0.,4.8
1989-08-24T12:31:07.180 ,4,0,0.,4.8,0.,4.8,0.,4.8,0.,4.8
1989-08-24T12:31:11.980 ,5,0,0.,4.8,0.,4.8,0.,4.8,0.,4.8
1989-08-24T12:31:16.780 ,5,0,0.,4.8,0.,4.8,0.,4.8,0.,4.8
1989-08-24T12:31:21.580 ,5,0,0.,4.8,0.,4.8,0.,4.8,0.,4.8
1989-08-24T12:31:26.380 ,5,0,0.,4.8,0.,4.8,0.,4.8,0.,4.8
1989-08-24T12:31:31.180 ,5,0,0.,4.8,0.,4.8,0.,4.8,0.,4.8
1989-08-24T12:31:35.980 ,5,0,0.,4.8,0.,4.8,0.,4.8,0.,4.8
1989-08-24T12:31:40.780 ,5,0,0.,4.8,0.,4.8,0.,4.8,0.,4.8
1989-08-24T12:31:45.580 ,5,0,0.,4.8,0.,4.8,0.,4.8,0.,4.8
1989-08-24T12:31:50.380 ,5,0,0.,4.8,0.,4.8,0.,4.8,0.,4.8
1989-08-24T12:31:55.180 ,5,0,0.,4.8,0.,4.8,0.,4.8,0.,4.8
1989-08-24T12:31:59.980 ,6,0,0.,4.8,0.,4.8,0.,4.8,0.,4.8
1989-08-24T12:32:04.780 ,6,0,0.,4.8,0.,4.8,0.,4.8,0.,4.8
1989-08-24T12:32:09.580 ,6,0,0.,4.8,0.,4.8,0.,4.8,0.,4.8
1989-08-24T12:32:14.380 ,6,0,0.,4.8,0.,4.8,0.,4.8,0.,4.8
1989-08-24T12:32:19.180 ,6,0,0.,4.8,0.,4.8,0.,4.8,0.,4.8
1989-08-24T12:32:23.980 ,6,0,0.,4.8,0.,4.8,0.,4.8,0.,4.8
1989-08-24T12:32:28.780 ,6,0,0.,4.8,0.,4.8,0.,4.8,0.,4.8
1989-08-24T12:32:33.580 ,6,0,0.,4.8,0.,4.8,0.,4.8,0.,4.8
1989-08-24T12:32:38.380 ,6,0,0.,4.8,0.,4.8,0.,4.8,0.,4.8
1989-08-24T12:32:43.180 ,6,0,0.,4.8,0.,4.8,0.,4.8,0.,4.8
1989-08-24T12:32:47.980 ,7,0,0.,4.8,0.,4.8,0.,4.8,0.,4.8
1989-08-24T12:32:52.780 ,7,0,0.,4.8,0.,4.8,0.,4.8,0.,4.8
1989-08-24T12:32:57.580 ,7,0,0.,4.8,0.,4.8,0.,4.8,0.,4.8
1989-08-24T12:33:02.380 ,7,0,0.,4.8,0.,4.8,0.,4.8,0.,4.8
1989-08-24T12:33:07.180 ,7,0,0.,4.8,0.,4.8,0.,4.8,0.,4.8
1989-08-24T12:33:11.980 ,7,0,0.,4.8,0.,4.8,0.,4.8,0.,4.8
1989-08-24T12:33:16.780 ,7,0,0.,4.8,0.,4.8,0.,4.8,0.,4.8